VHYDD YECH-YMEN

Flight info

Callsign VHYDD
Flight time 0h 44m
Altitude 9000
Route UGPUR W481 LACEY W188 COLDS V512 ESDAN
Aircraft BE58/L-SDFGRY/C

Departure

Time 2026-04-19 05:19
Airport Echuca Airport (YECH)

Arrival

Time 2026-04-19 06:03
Airport Melbourne Essendon Airport (YMEN)
Time Latitude Longitude Altitude Speed Heading
2026-04-19 05:11 -36.16537 144.76372 322 ft 0 kts 179°
2026-04-19 05:17 -36.16543 144.76367 322 ft 6 kts 243°
2026-04-19 05:17 -36.16450 144.76341 322 ft 16 kts 358°
2026-04-19 05:17 -36.16417 144.76268 321 ft 19 kts 268°
2026-04-19 05:18 -36.16562 144.76217 320 ft 23 kts 178°
2026-04-19 05:18 -36.16717 144.76222 321 ft 19 kts 169°
2026-04-19 05:18 -36.16770 144.76233 321 ft 10 kts 285°
2026-04-19 05:18 -36.16130 144.76201 364 ft 120 kts 353°
2026-04-19 05:19 -36.15523 144.76165 584 ft 138 kts 355°
2026-04-19 05:19 -36.14592 144.76037 1256 ft 129 kts 344°
2026-04-19 05:19 -36.13866 144.75439 1726 ft 129 kts 300°
2026-04-19 05:19 -36.13734 144.74350 2143 ft 134 kts 253°
2026-04-19 05:20 -36.14357 144.73529 2573 ft 138 kts 200°
2026-04-19 05:20 -36.15277 144.73725 3003 ft 143 kts 143°
2026-04-19 05:20 -36.15926 144.74625 3571 ft 135 kts 132°
2026-04-19 05:20 -36.16492 144.75566 3986 ft 141 kts 130°
2026-04-19 05:21 -36.17087 144.76561 4358 ft 145 kts 131°
2026-04-19 05:21 -36.17823 144.77390 4740 ft 142 kts 154°
2026-04-19 05:21 -36.18720 144.77908 5114 ft 142 kts 161°
2026-04-19 05:21 -36.19623 144.78381 5480 ft 143 kts 161°
2026-04-19 05:22 -36.20533 144.78873 5850 ft 143 kts 160°
2026-04-19 05:22 -36.21445 144.79387 6233 ft 143 kts 160°
2026-04-19 05:22 -36.22355 144.79913 6614 ft 144 kts 160°
2026-04-19 05:22 -36.23263 144.80443 6969 ft 144 kts 159°
2026-04-19 05:23 -36.24149 144.80966 7319 ft 142 kts 159°
2026-04-19 05:23 -36.25042 144.81495 7686 ft 142 kts 159°
2026-04-19 05:23 -36.25941 144.82025 8021 ft 145 kts 159°
2026-04-19 05:23 -36.26879 144.82577 8272 ft 152 kts 159°
2026-04-19 05:24 -36.27856 144.83151 8524 ft 157 kts 159°
2026-04-19 05:24 -36.28853 144.83739 8680 ft 164 kts 159°
2026-04-19 05:24 -36.29913 144.84366 8813 ft 171 kts 158°
2026-04-19 05:24 -36.31001 144.85010 8939 ft 174 kts 158°
2026-04-19 05:25 -36.32100 144.85661 8967 ft 179 kts 158°
2026-04-19 05:25 -36.33231 144.86332 8973 ft 180 kts 158°
2026-04-19 05:25 -36.34362 144.87004 8984 ft 180 kts 158°
2026-04-19 05:25 -36.35489 144.87674 8980 ft 178 kts 158°
2026-04-19 05:26 -36.36597 144.88334 8978 ft 175 kts 158°
2026-04-19 05:26 -36.37659 144.88968 8977 ft 167 kts 159°
2026-04-19 05:26 -36.38674 144.89576 8978 ft 158 kts 159°
2026-04-19 05:26 -36.39700 144.90183 8982 ft 168 kts 159°
2026-04-19 05:27 -36.40744 144.90799 8984 ft 168 kts 159°
2026-04-19 05:27 -36.41822 144.91436 8984 ft 174 kts 159°
2026-04-19 05:27 -36.42931 144.92092 8982 ft 178 kts 158°
2026-04-19 05:27 -36.44059 144.92763 8980 ft 180 kts 158°
2026-04-19 05:28 -36.45194 144.93439 8977 ft 181 kts 158°
2026-04-19 05:28 -36.46339 144.94120 8978 ft 182 kts 158°
2026-04-19 05:28 -36.47486 144.94803 8978 ft 182 kts 158°
2026-04-19 05:28 -36.48619 144.95478 8979 ft 183 kts 158°
2026-04-19 05:29 -36.49766 144.96162 8978 ft 183 kts 158°
2026-04-19 05:29 -36.50917 144.96848 8977 ft 183 kts 158°
2026-04-19 05:29 -36.52062 144.97531 8980 ft 183 kts 158°
2026-04-19 05:29 -36.53198 144.98208 8979 ft 183 kts 158°
2026-04-19 05:30 -36.54348 144.98894 8981 ft 183 kts 158°
2026-04-19 05:30 -36.55503 144.99582 8982 ft 183 kts 158°
2026-04-19 05:30 -36.56651 145.00268 8981 ft 183 kts 158°
2026-04-19 05:30 -36.57803 145.00956 8997 ft 183 kts 158°
2026-04-19 05:31 -36.58938 145.01633 8984 ft 183 kts 158°
2026-04-19 05:31 -36.60091 145.02323 8980 ft 183 kts 158°
2026-04-19 05:31 -36.61241 145.03010 8982 ft 183 kts 158°
2026-04-19 05:31 -36.62386 145.03694 8981 ft 183 kts 159°
2026-04-19 05:32 -36.63535 145.04382 8988 ft 183 kts 159°
2026-04-19 05:32 -36.64686 145.05070 8980 ft 183 kts 159°
2026-04-19 05:32 -36.65835 145.05758 8979 ft 183 kts 159°
2026-04-19 05:32 -36.66973 145.06438 8977 ft 183 kts 159°
2026-04-19 05:33 -36.68121 145.07126 8980 ft 183 kts 159°
2026-04-19 05:33 -36.69269 145.07814 8980 ft 183 kts 159°
2026-04-19 05:33 -36.70421 145.08505 8980 ft 183 kts 159°
2026-04-19 05:33 -36.71556 145.09185 8979 ft 183 kts 159°
2026-04-19 05:34 -36.72706 145.09875 8978 ft 183 kts 158°
2026-04-19 05:34 -36.73859 145.10568 8977 ft 183 kts 158°
2026-04-19 05:34 -36.75008 145.11258 8988 ft 183 kts 159°
2026-04-19 05:34 -36.76160 145.11947 8988 ft 183 kts 159°
2026-04-19 05:35 -36.77293 145.12628 8981 ft 183 kts 158°
2026-04-19 05:35 -36.78454 145.13325 8979 ft 184 kts 159°
2026-04-19 05:35 -36.79597 145.14011 8980 ft 184 kts 158°
2026-04-19 05:35 -36.80749 145.14704 8978 ft 184 kts 158°
2026-04-19 05:36 -36.81902 145.15398 8979 ft 184 kts 158°
2026-04-19 05:36 -36.83054 145.16091 8977 ft 184 kts 158°
2026-04-19 05:36 -36.84212 145.16788 8978 ft 183 kts 158°
2026-04-19 05:36 -36.85349 145.17473 8979 ft 184 kts 159°
2026-04-19 05:37 -36.86502 145.18167 8983 ft 184 kts 159°
2026-04-19 05:37 -36.87655 145.18861 8981 ft 184 kts 159°
2026-04-19 05:37 -36.88823 145.19523 8978 ft 183 kts 162°
2026-04-19 05:37 -36.90021 145.20078 8978 ft 183 kts 164°
2026-04-19 05:38 -36.91198 145.20618 8979 ft 183 kts 163°
2026-04-19 05:38 -36.92402 145.21175 8987 ft 183 kts 163°
2026-04-19 05:38 -36.93597 145.21728 8979 ft 183 kts 163°
2026-04-19 05:38 -36.94791 145.22281 8976 ft 182 kts 164°
2026-04-19 05:39 -36.95965 145.22824 8990 ft 182 kts 164°
2026-04-19 05:39 -36.97152 145.23372 9002 ft 182 kts 164°
2026-04-19 05:39 -36.98344 145.23922 9009 ft 182 kts 163°
2026-04-19 05:39 -36.99535 145.24473 9004 ft 182 kts 163°
2026-04-19 05:40 -37.00733 145.25027 9011 ft 183 kts 163°
2026-04-19 05:40 -37.01933 145.25582 9006 ft 183 kts 163°
2026-04-19 05:40 -37.03129 145.26134 9005 ft 183 kts 164°
2026-04-19 05:40 -37.04313 145.26682 9010 ft 183 kts 163°
2026-04-19 05:41 -37.05515 145.27237 9009 ft 183 kts 163°
2026-04-19 05:41 -37.06715 145.27792 9002 ft 183 kts 163°
2026-04-19 05:41 -37.07897 145.28341 9004 ft 183 kts 164°
2026-04-19 05:41 -37.09091 145.28893 9003 ft 183 kts 163°
2026-04-19 05:42 -37.10285 145.29447 9003 ft 182 kts 164°
2026-04-19 05:42 -37.11483 145.30001 9016 ft 184 kts 164°
2026-04-19 05:42 -37.12688 145.30559 9011 ft 185 kts 164°
2026-04-19 05:42 -37.13879 145.31112 9006 ft 185 kts 164°
2026-04-19 05:43 -37.15086 145.31672 9006 ft 185 kts 164°
2026-04-19 05:43 -37.16294 145.32234 9002 ft 185 kts 164°
2026-04-19 05:43 -37.17498 145.32793 9000 ft 184 kts 164°
2026-04-19 05:43 -37.18703 145.33354 8999 ft 184 kts 164°
2026-04-19 05:44 -37.19903 145.33912 9001 ft 183 kts 164°
2026-04-19 05:44 -37.21085 145.34462 9004 ft 183 kts 164°
2026-04-19 05:44 -37.22282 145.35017 9002 ft 183 kts 164°
2026-04-19 05:44 -37.23476 145.35573 9007 ft 183 kts 164°
2026-04-19 05:45 -37.24676 145.36131 9013 ft 184 kts 164°
2026-04-19 05:45 -37.25864 145.36684 9005 ft 184 kts 164°
2026-04-19 05:45 -37.27066 145.37243 9008 ft 184 kts 163°
2026-04-19 05:45 -37.28265 145.37802 8999 ft 183 kts 164°
2026-04-19 05:46 -37.29465 145.38361 9003 ft 183 kts 163°
2026-04-19 05:46 -37.30646 145.38912 9007 ft 183 kts 163°
2026-04-19 05:46 -37.31849 145.39473 9006 ft 184 kts 164°
2026-04-19 05:46 -37.33049 145.40032 9006 ft 184 kts 164°
2026-04-19 05:47 -37.34253 145.40595 9006 ft 184 kts 164°
2026-04-19 05:47 -37.35447 145.41152 9003 ft 184 kts 164°
2026-04-19 05:47 -37.36646 145.41713 9002 ft 184 kts 163°
2026-04-19 05:47 -37.37844 145.42276 9002 ft 183 kts 164°
2026-04-19 05:48 -37.39041 145.42834 9000 ft 183 kts 164°
2026-04-19 05:48 -37.40237 145.43392 9000 ft 182 kts 164°
2026-04-19 05:48 -37.41412 145.43939 9006 ft 183 kts 164°
2026-04-19 05:48 -37.42606 145.44497 9005 ft 183 kts 164°
2026-04-19 05:49 -37.43801 145.45056 9004 ft 183 kts 164°
2026-04-19 05:49 -37.44997 145.45616 9008 ft 183 kts 164°
2026-04-19 05:49 -37.46195 145.46176 9006 ft 183 kts 164°
2026-04-19 05:49 -37.47389 145.46735 9003 ft 183 kts 164°
2026-04-19 05:50 -37.48565 145.47286 8998 ft 183 kts 164°
2026-04-19 05:50 -37.49757 145.47846 9002 ft 183 kts 164°
2026-04-19 05:50 -37.50950 145.48405 9008 ft 183 kts 164°
2026-04-19 05:50 -37.52150 145.48968 9003 ft 184 kts 163°
2026-04-19 05:51 -37.53342 145.49527 9001 ft 184 kts 163°
2026-04-19 05:51 -37.54560 145.49972 9004 ft 180 kts 178°
2026-04-19 05:51 -37.55767 145.49686 9011 ft 177 kts 207°
2026-04-19 05:51 -37.56774 145.48788 9006 ft 178 kts 218°
2026-04-19 05:52 -37.57754 145.47836 8994 ft 179 kts 217°
2026-04-19 05:52 -37.58753 145.46877 8818 ft 185 kts 217°
2026-04-19 05:52 -37.59783 145.45881 8636 ft 187 kts 217°
2026-04-19 05:52 -37.60812 145.44888 8451 ft 185 kts 217°
2026-04-19 05:53 -37.61836 145.43898 8250 ft 185 kts 217°
2026-04-19 05:53 -37.62864 145.42903 8052 ft 185 kts 217°
2026-04-19 05:53 -37.63877 145.41923 7852 ft 185 kts 217°
2026-04-19 05:53 -37.64901 145.40935 7657 ft 185 kts 217°
2026-04-19 05:54 -37.65920 145.39946 7461 ft 184 kts 218°
2026-04-19 05:54 -37.66576 145.38571 7269 ft 190 kts 256°
2026-04-19 05:54 -37.66545 145.36903 7072 ft 193 kts 271°
2026-04-19 05:54 -37.66363 145.35216 6885 ft 194 kts 274°
2026-04-19 05:55 -37.66141 145.33530 6699 ft 195 kts 275°
2026-04-19 05:55 -37.65900 145.31844 6495 ft 195 kts 275°
2026-04-19 05:55 -37.65655 145.30179 6299 ft 194 kts 276°
2026-04-19 05:55 -37.65405 145.28500 6083 ft 194 kts 276°
2026-04-19 05:56 -37.65159 145.26831 5885 ft 193 kts 276°
2026-04-19 05:56 -37.64922 145.25160 5640 ft 194 kts 276°
2026-04-19 05:56 -37.64691 145.23472 5392 ft 195 kts 276°
2026-04-19 05:56 -37.64469 145.21797 5154 ft 197 kts 276°
2026-04-19 05:57 -37.64246 145.20087 4903 ft 197 kts 276°
2026-04-19 05:57 -37.64028 145.18374 4658 ft 197 kts 276°
2026-04-19 05:57 -37.63819 145.16666 4396 ft 196 kts 276°
2026-04-19 05:57 -37.63619 145.14984 4150 ft 195 kts 276°
2026-04-19 05:58 -37.63429 145.13308 3900 ft 189 kts 276°
2026-04-19 05:58 -37.63305 145.11689 3652 ft 182 kts 269°
2026-04-19 05:58 -37.63339 145.10109 3404 ft 177 kts 265°
2026-04-19 05:58 -37.63420 145.08599 3156 ft 172 kts 264°
2026-04-19 05:59 -37.63520 145.07107 2907 ft 170 kts 264°
2026-04-19 05:59 -37.63763 145.05656 2648 ft 168 kts 251°
2026-04-19 05:59 -37.64174 145.04271 2412 ft 167 kts 249°
2026-04-19 05:59 -37.64601 145.02942 2228 ft 165 kts 248°
2026-04-19 06:00 -37.65066 145.01623 2013 ft 165 kts 245°
2026-04-19 06:00 -37.65567 145.00299 1790 ft 165 kts 244°
2026-04-19 06:00 -37.66066 144.99002 1636 ft 164 kts 244°
2026-04-19 06:00 -37.66567 144.97741 1581 ft 159 kts 242°
2026-04-19 06:01 -37.67073 144.96546 1553 ft 147 kts 241°
2026-04-19 06:01 -37.67521 144.95408 1411 ft 145 kts 250°
2026-04-19 06:01 -37.67718 144.94170 1302 ft 141 kts 263°
2026-04-19 06:01 -37.67856 144.92919 1205 ft 144 kts 261°
2026-04-19 06:02 -37.68022 144.91697 1230 ft 142 kts 257°
2026-04-19 06:02 -37.68401 144.90550 1156 ft 139 kts 230°
2026-04-19 06:02 -37.69156 144.90053 1009 ft 117 kts 186°
2026-04-19 06:02 -37.69939 144.89989 796 ft 108 kts 177°
2026-04-19 06:03 -37.70678 144.90012 646 ft 105 kts 175°
2026-04-19 06:03 -37.71394 144.90043 441 ft 102 kts 173°
2026-04-19 06:03 -37.72091 144.90080 273 ft 94 kts 174°
2026-04-19 06:03 -37.72549 144.90101 263 ft 26 kts 179°
2026-04-19 06:04 -37.72705 144.90112 262 ft 22 kts 175°
2026-04-19 06:04 -37.72782 144.90030 264 ft 15 kts 275°
2026-04-19 06:04 -37.72785 144.89941 264 ft 12 kts 200°
2026-04-19 06:04 -37.72864 144.89879 264 ft 18 kts 274°
2026-04-19 06:05 -37.72827 144.89801 264 ft 0 kts